STARLINK-2275 (48600 NORAD) Tracking and Keplerian Element Data

This shows tracking and keplerian element data for the satellite.

Feedback or suggestion? Click here.




ElementValue
Catalog48600
NameSTARLINK-2275
Epoch Orbit2430
Epoch Day288.00723642
Epoch Year2021
RAAN144.2984
Inclination53.0518
Eccentricity0.000189
Argument of Perigee70.9036
Mean Anonmoly289.2157
Mean Motion15.06390857
Decay Rate-8.71E-06
L11 48600U 21041AZ 21288.00723642 -.00000871 00000-0 -39582-4 0 9990
L22 48600 53.0518 144.2984 0001890 70.9036 289.2157 15.06390857 24304

Live tracking and technical data element details for STARLINK-2275 (NORAD 48600). STARLINK-2275 can be tracked NOW for your location showing map with azimuth and elevation plus other details from your city location.

Track the satellite on the map from your city or location and see movement details for azimuth, elevation, latitude, longitude, range, height, and movement on the map or in text.







IsCatalogInMostPopularTable: catalog: 48600, numindb: 38
Update: records affected: 1



GetName: 48600 STARLINK-2275

Hit Count: updated at: Tue, 19 Oct 2021 07:51:16 GMT